AUA189 LOWW-EDDM

Flight info

Callsign AUA189
Flight time 0h 36m
Altitude 30000
Route SOVIL DCT SITNI DCT BAGSI DCT MATIG DCT AMADI Q113 NAPSA NAPSA1B
Aircraft A320/M-SDE3FGHIRWY/LB1

Departure

Time 2026-05-04 20:47
Airport Vienna International Airport (LOWW)

Arrival

Time 2026-05-04 21:24
Airport Munich Airport (EDDM)
Time Latitude Longitude Altitude Speed Heading
2026-05-04 20:26 48.11867 16.56880 623 ft 0 kts 206°
2026-05-04 20:40 48.11890 16.56896 612 ft 4 kts 203°
2026-05-04 20:40 48.11915 16.56911 617 ft 4 kts 198°
2026-05-04 20:40 48.11941 16.56922 622 ft 4 kts 188°
2026-05-04 20:40 48.11967 16.56922 619 ft 4 kts 151°
2026-05-04 20:41 48.11975 16.56913 614 ft 0 kts 116°
2026-05-04 20:42 48.11975 16.56914 615 ft 2 kts 116°
2026-05-04 20:43 48.11952 16.56983 616 ft 10 kts 116°
2026-05-04 20:43 48.11917 16.57091 620 ft 13 kts 116°
2026-05-04 20:43 48.11864 16.57204 626 ft 14 kts 131°
2026-05-04 20:43 48.11814 16.57326 612 ft 14 kts 117°
2026-05-04 20:44 48.11822 16.57477 617 ft 16 kts 74°
2026-05-04 20:44 48.11852 16.57641 616 ft 16 kts 75°
2026-05-04 20:44 48.11860 16.57754 621 ft 0 kts 99°
2026-05-04 20:45 48.11857 16.57772 613 ft 7 kts 107°
2026-05-04 20:45 48.11823 16.57870 612 ft 12 kts 133°
2026-05-04 20:46 48.11787 16.57898 620 ft 0 kts 162°
2026-05-04 20:46 48.11781 16.57900 617 ft 6 kts 162°
2026-05-04 20:47 48.11518 16.58018 622 ft 77 kts 164°
2026-05-04 20:47 48.10780 16.58328 614 ft 141 kts 164°
2026-05-04 20:47 48.09724 16.58773 996 ft 161 kts 164°
2026-05-04 20:47 48.08654 16.59201 1805 ft 160 kts 167°
2026-05-04 20:48 48.07579 16.59645 2606 ft 164 kts 168°
2026-05-04 20:48 48.06383 16.60069 3025 ft 185 kts 179°
2026-05-04 20:48 48.05150 16.59429 3382 ft 208 kts 219°
2026-05-04 20:48 48.04125 16.57718 3876 ft 234 kts 231°
2026-05-04 20:49 48.03139 16.55652 4597 ft 251 kts 233°
2026-05-04 20:49 48.02140 16.53463 5510 ft 259 kts 234°
2026-05-04 20:49 48.01100 16.51221 6424 ft 266 kts 233°
2026-05-04 20:49 48.00018 16.48954 7350 ft 270 kts 233°
2026-05-04 20:50 47.98909 16.46666 8312 ft 274 kts 235°
2026-05-04 20:50 47.98120 16.44058 9253 ft 280 kts 253°
2026-05-04 20:50 47.97927 16.41133 10162 ft 288 kts 270°
2026-05-04 20:50 47.98049 16.38029 10585 ft 311 kts 271°
2026-05-04 20:51 47.98183 16.34698 11043 ft 329 kts 271°
2026-05-04 20:51 47.98323 16.31253 11806 ft 335 kts 271°
2026-05-04 20:51 47.98464 16.27758 12636 ft 340 kts 271°
2026-05-04 20:51 47.98605 16.24217 13483 ft 344 kts 271°
2026-05-04 20:52 47.98745 16.20636 14248 ft 347 kts 271°
2026-05-04 20:52 47.98836 16.18244 14722 ft 350 kts 271°
2026-05-04 20:52 47.98972 16.14603 15472 ft 354 kts 271°
2026-05-04 20:52 47.99127 16.10918 16213 ft 358 kts 272°
2026-05-04 20:53 47.99367 16.07202 16926 ft 362 kts 274°
2026-05-04 20:53 47.99666 16.03446 17637 ft 366 kts 275°
2026-05-04 20:53 47.99990 15.99652 18329 ft 370 kts 275°
2026-05-04 20:53 48.00315 15.95820 18939 ft 374 kts 275°
2026-05-04 20:54 48.00634 15.91954 19559 ft 377 kts 275°
2026-05-04 20:54 48.00944 15.88049 20191 ft 380 kts 275°
2026-05-04 20:54 48.01247 15.84109 20826 ft 383 kts 275°
2026-05-04 20:54 48.01543 15.80136 21477 ft 386 kts 275°
2026-05-04 20:55 48.01836 15.76134 22125 ft 389 kts 275°
2026-05-04 20:55 48.02130 15.72104 22758 ft 392 kts 276°
2026-05-04 20:55 48.02429 15.68040 23362 ft 395 kts 276°
2026-05-04 20:55 48.02731 15.63941 23870 ft 399 kts 276°
2026-05-04 20:56 48.03036 15.59810 24353 ft 402 kts 276°
2026-05-04 20:56 48.03344 15.55643 24811 ft 405 kts 276°
2026-05-04 20:56 48.03651 15.51451 25271 ft 408 kts 276°
2026-05-04 20:56 48.03954 15.47224 25724 ft 410 kts 275°
2026-05-04 20:57 48.04253 15.42971 26175 ft 413 kts 275°
2026-05-04 20:57 48.04554 15.38691 26611 ft 415 kts 275°
2026-05-04 20:57 48.04791 15.34378 27045 ft 418 kts 272°
2026-05-04 20:57 48.04915 15.30036 27471 ft 420 kts 271°
2026-05-04 20:58 48.04968 15.25658 27902 ft 422 kts 270°
2026-05-04 20:58 48.04986 15.21257 28313 ft 425 kts 269°
2026-05-04 20:58 48.05001 15.16831 28720 ft 427 kts 269°
2026-05-04 20:58 48.05031 15.12383 29115 ft 429 kts 270°
2026-05-04 20:59 48.05082 15.07913 29500 ft 431 kts 270°
2026-05-04 20:59 48.05144 15.03421 29840 ft 434 kts 270°
2026-05-04 20:59 48.05272 14.94614 29912 ft 412 kts 270°
2026-05-04 21:00 48.05389 14.86113 29912 ft 407 kts 270°
2026-05-04 21:00 48.05487 14.77669 29907 ft 406 kts 269°
2026-05-04 21:01 48.05556 14.69235 29905 ft 406 kts 269°
2026-05-04 21:01 48.05609 14.60811 29908 ft 405 kts 269°
2026-05-04 21:02 48.06041 14.52431 29917 ft 407 kts 280°
2026-05-04 21:02 48.07219 14.44161 29921 ft 407 kts 280°
2026-05-04 21:03 48.08414 14.35960 29928 ft 406 kts 280°
2026-05-04 21:03 48.09614 14.27715 29930 ft 406 kts 280°
2026-05-04 21:04 48.10805 14.19456 29931 ft 406 kts 280°
2026-05-04 21:04 48.11985 14.11199 29928 ft 406 kts 280°
2026-05-04 21:05 48.13152 14.02919 29901 ft 409 kts 279°
2026-05-04 21:05 48.13745 13.98714 29075 ft 416 kts 280°
2026-05-04 21:05 48.14340 13.94500 28520 ft 411 kts 280°
2026-05-04 21:06 48.14926 13.90342 27967 ft 406 kts 280°
2026-05-04 21:06 48.15503 13.86231 27422 ft 401 kts 280°
2026-05-04 21:06 48.16075 13.82163 26891 ft 397 kts 280°
2026-05-04 21:06 48.16637 13.78134 26370 ft 393 kts 280°
2026-05-04 21:07 48.17190 13.74139 25864 ft 390 kts 280°
2026-05-04 21:07 48.17737 13.70168 25349 ft 389 kts 280°
2026-05-04 21:07 48.18283 13.66206 24810 ft 388 kts 280°
2026-05-04 21:07 48.18825 13.62254 24288 ft 386 kts 280°
2026-05-04 21:08 48.19362 13.58319 23775 ft 385 kts 281°
2026-05-04 21:08 48.19898 13.54405 23288 ft 382 kts 281°
2026-05-04 21:08 48.20432 13.50512 22582 ft 383 kts 281°
2026-05-04 21:08 48.20967 13.46602 21981 ft 382 kts 280°
2026-05-04 21:09 48.21496 13.42713 21473 ft 379 kts 280°
2026-05-04 21:09 48.22016 13.38858 20968 ft 376 kts 280°
2026-05-04 21:09 48.22532 13.35031 20477 ft 373 kts 280°
2026-05-04 21:09 48.23045 13.31242 20005 ft 369 kts 280°
2026-05-04 21:10 48.23553 13.27479 19538 ft 366 kts 279°
2026-05-04 21:10 48.24052 13.23752 19066 ft 363 kts 279°
2026-05-04 21:10 48.24550 13.20028 18475 ft 364 kts 279°
2026-05-04 21:10 48.25045 13.16302 17861 ft 365 kts 279°
2026-05-04 21:11 48.25540 13.12561 17195 ft 366 kts 279°
2026-05-04 21:11 48.26037 13.08825 16606 ft 364 kts 279°
2026-05-04 21:11 48.26531 13.05109 16093 ft 361 kts 279°
2026-05-04 21:11 48.27017 13.01428 15596 ft 358 kts 278°
2026-05-04 21:12 48.27496 12.97774 15104 ft 356 kts 278°
2026-05-04 21:12 48.27970 12.94142 14616 ft 353 kts 278°
2026-05-04 21:12 48.28442 12.90536 14143 ft 351 kts 278°
2026-05-04 21:12 48.28910 12.86955 13666 ft 349 kts 278°
2026-05-04 21:13 48.29377 12.83393 13141 ft 346 kts 278°
2026-05-04 21:13 48.29839 12.79861 12618 ft 343 kts 278°
2026-05-04 21:13 48.30295 12.76358 12105 ft 340 kts 278°
2026-05-04 21:13 48.30744 12.72881 11599 ft 337 kts 278°
2026-05-04 21:14 48.31186 12.69439 11103 ft 334 kts 278°
2026-05-04 21:14 48.31624 12.66028 10611 ft 331 kts 278°
2026-05-04 21:14 48.32058 12.62647 10130 ft 328 kts 278°
2026-05-04 21:14 48.32486 12.59298 9641 ft 325 kts 278°
2026-05-04 21:15 48.32909 12.55975 9120 ft 322 kts 278°
2026-05-04 21:15 48.33327 12.52679 8611 ft 320 kts 278°
2026-05-04 21:15 48.33741 12.49408 8098 ft 317 kts 278°
2026-05-04 21:15 48.34151 12.46165 7608 ft 315 kts 278°
2026-05-04 21:16 48.34558 12.42948 7119 ft 312 kts 279°
2026-05-04 21:16 48.34962 12.39756 6637 ft 310 kts 279°
2026-05-04 21:16 48.35356 12.36629 6159 ft 307 kts 279°
2026-05-04 21:16 48.35756 12.33447 5656 ft 305 kts 279°
2026-05-04 21:17 48.36224 12.30351 5162 ft 303 kts 289°
2026-05-04 21:17 48.37062 12.27503 4948 ft 287 kts 294°
2026-05-04 21:17 48.37871 12.24993 4975 ft 255 kts 294°
2026-05-04 21:17 48.38611 12.22727 4986 ft 231 kts 295°
2026-05-04 21:18 48.39258 12.20612 4988 ft 214 kts 284°
2026-05-04 21:18 48.39399 12.18485 4994 ft 200 kts 262°
2026-05-04 21:18 48.39246 12.16424 5001 ft 197 kts 262°
2026-05-04 21:18 48.39096 12.14375 5004 ft 197 kts 262°
2026-05-04 21:19 48.38946 12.12334 5024 ft 192 kts 262°
2026-05-04 21:19 48.38807 12.10434 5012 ft 175 kts 262°
2026-05-04 21:19 48.38676 12.08653 4864 ft 168 kts 262°
2026-05-04 21:19 48.38548 12.06924 4665 ft 164 kts 262°
2026-05-04 21:20 48.38424 12.05251 4469 ft 158 kts 262°
2026-05-04 21:20 48.38304 12.03634 4271 ft 154 kts 262°
2026-05-04 21:20 48.38186 12.02047 4076 ft 152 kts 262°
2026-05-04 21:20 48.38069 12.00471 3875 ft 151 kts 263°
2026-05-04 21:21 48.37952 11.98901 3686 ft 151 kts 263°
2026-05-04 21:21 48.37834 11.97328 3493 ft 151 kts 263°
2026-05-04 21:21 48.37717 11.95759 3297 ft 151 kts 263°
2026-05-04 21:21 48.37599 11.94190 3102 ft 151 kts 263°
2026-05-04 21:22 48.37481 11.92620 2904 ft 151 kts 264°
2026-05-04 21:22 48.37363 11.91054 2711 ft 151 kts 264°
2026-05-04 21:22 48.37245 11.89486 2512 ft 150 kts 264°
2026-05-04 21:22 48.37128 11.87938 2299 ft 147 kts 265°
2026-05-04 21:23 48.37015 11.86451 2089 ft 140 kts 264°
2026-05-04 21:23 48.36907 11.85018 1902 ft 137 kts 263°
2026-05-04 21:23 48.36798 11.83588 1701 ft 136 kts 264°
2026-05-04 21:23 48.36690 11.82165 1520 ft 137 kts 264°
2026-05-04 21:24 48.36594 11.80886 1483 ft 96 kts 263°
2026-05-04 21:24 48.36538 11.80166 1473 ft 38 kts 264°
2026-05-04 21:24 48.36511 11.79899 1484 ft 21 kts 250°
2026-05-04 21:24 48.36458 11.79720 1477 ft 16 kts 240°
2026-05-04 21:25 48.36398 11.79599 1482 ft 12 kts 233°
2026-05-04 21:25 48.36351 11.79504 1485 ft 11 kts 233°
2026-05-04 21:25 48.36303 11.79409 1480 ft 11 kts 233°
2026-05-04 21:25 48.36251 11.79320 1483 ft 11 kts 210°
2026-05-04 21:26 48.36172 11.79305 1485 ft 11 kts 177°
2026-05-04 21:26 48.36108 11.79309 1481 ft 8 kts 177°
2026-05-04 21:26 48.36065 11.79318 1481 ft 7 kts 171°
2026-05-04 21:26 48.36006 11.79333 1482 ft 7 kts 171°
2026-05-04 21:27 48.35963 11.79343 1481 ft 8 kts 171°
2026-05-04 21:27 48.35907 11.79384 1485 ft 8 kts 122°
2026-05-04 21:27 48.35877 11.79443 1484 ft 8 kts 149°
2026-05-04 21:27 48.35815 11.79461 1481 ft 10 kts 172°
2026-05-04 21:28 48.35748 11.79517 1484 ft 10 kts 147°
2026-05-04 21:28 48.35722 11.79582 1485 ft 6 kts 92°
2026-05-04 21:28 48.35726 11.79634 1485 ft 4 kts 81°
2026-05-04 21:28 48.35728 11.79665 1485 ft 4 kts 83°
2026-05-04 21:29 48.35730 11.79688 1485 ft 0 kts 83°